Simultaneous Nadir Overpasses (SNOs) Predictions

Prediction of SNOs between GOES-16 and METOP-C Satellite Orbit:

Table of predicted SNOs for the next 14.0 days since TLE Epoch: 8/28/2020
Index Date Time (GOES-16) GOES-16 Lat,Lon METOP-C Lat,Lon Distance(km) Time Diff (sec)
1 08/29/2020 14:42:17 0.01, -75.19 0.46, -77.32 241.66 80
2 08/30/2020 14:18:57 0.00, -75.19 -0.62, -72.31 327.35 80
3 09/01/2020 02:40:37 -0.01, -75.18 -0.40, -76.91 197.44 80
4 09/02/2020 02:17:18 -0.00, -75.18 0.74, -71.92 372.00 80
5 09/03/2020 14:38:48 0.01, -75.20 0.27, -76.48 144.93 80
6 09/04/2020 14:15:28 -0.00, -75.21 -0.81, -71.48 425.06 80
7 09/06/2020 02:37:08 -0.01, -75.21 -0.21, -76.07 98.31 80
8 09/07/2020 02:13:48 -0.00, -75.22 0.93, -71.08 471.90 80
9 09/08/2020 14:35:19 0.01, -75.25 0.08, -75.64 44.08 80
10 09/11/2020 02:33:38 -0.02, -75.27 -0.02, -75.24 3.99 80
